Location: Unspecified
(0.0000°N, 0.0000°E)
Time: 13:10:28
(UTC+00:00)

Transit 2A Rocket - All Passes

Search period start: 25 August 2016 00:00
Search period end: 04 September 2016 00:00
Orbit: 584 x 920 km, 66.7° (Epoch: 25 August)

Date Brightness Start Highest point End Pass type
(mag) Time Alt. Az. Time Alt. Az. Time Alt. Az.
25 Aug - 06:56:42 10° NE 06:57:51 11° ENE 06:58:58 10° E daylight
25 Aug - 08:35:49 10° NW 08:40:18 36° WSW 08:44:29 10° S daylight
25 Aug - 19:21:59 10° S 19:26:50 35° ESE 19:32:02 10° NE visible
25 Aug - 21:05:44 10° WSW 21:09:17 17° WNW 21:13:01 10° NNW visible
26 Aug - 07:53:08 10° NNW 07:58:06 85° WSW 08:02:38 10° SSE daylight
26 Aug - 18:41:10 10° SSE 18:44:38 17° ESE 18:48:15 10° ENE visible
26 Aug - 20:22:00 10° SW 20:26:55 34° WNW 20:32:11 10° N visible
27 Aug - 07:11:10 10° N 07:15:50 41° ENE 07:20:07 10° SE daylight
27 Aug - 19:39:13 10° SSW 19:44:36 70° WNW 19:50:27 10° NNE visible
28 Aug - 06:30:03 10° NNE 06:33:28 19° ENE 06:36:42 10° ESE daylight
28 Aug - 08:12:11 10° WNW 08:15:46 21° WSW 08:19:11 10° SSW daylight
28 Aug - 18:57:03 10° S 19:02:21 58° ESE 19:08:05 10° NNE visible
28 Aug - 20:44:23 10° WNW 20:44:58 10° WNW 20:45:32 10° WNW visible
29 Aug - 07:28:54 10° NW 07:33:35 47° WSW 07:37:55 10° S daylight
29 Aug - 18:15:33 10° SSE 18:20:09 28° ESE 18:25:02 10° NE visible
29 Aug - 19:58:22 10° WSW 20:02:32 22° WNW 20:06:57 10° NNW visible
30 Aug - 06:46:27 10° NNW 06:51:22 73° ENE 06:55:52 10° SSE daylight
30 Aug - 17:35:17 10° SE 17:37:56 14° ESE 17:40:41 10° E daylight
30 Aug - 19:15:01 10° SW 19:20:11 43° WNW 19:25:45 10° N visible
31 Aug - 06:04:43 10° N 06:09:04 31° ENE 06:13:06 10° SE daylight
31 Aug - 07:49:38 10° W 07:51:15 12° WSW 07:52:50 10° SW daylight
31 Aug - 18:32:26 10° SSW 18:37:53 87° WNW 18:43:49 10° NNE visible
01 Sep - 05:24:05 10° NE 05:26:41 14° ENE 05:29:11 10° E visible
01 Sep - 07:05:02 10° NW 07:09:04 26° WSW 07:12:51 10° SSW daylight
01 Sep - 17:50:28 10° S 17:55:39 46° ESE 18:01:15 10° NE daylight
01 Sep - 19:35:33 10° W 19:38:12 13° WNW 19:40:55 10° NW visible
02 Sep - 06:22:04 10° NNW 06:26:52 62° WSW 06:31:17 10° S daylight
02 Sep - 17:09:13 10° SSE 17:13:27 23° ESE 17:17:55 10° ENE daylight
02 Sep - 18:51:10 10° SW 18:55:49 27° WNW 19:00:43 10° NNW visible
03 Sep - 05:39:50 10° N 05:44:37 55° ENE 05:49:01 10° SSE daylight
03 Sep - 16:30:07 10° ESE 16:31:14 11° ESE 16:32:22 10° E daylight
03 Sep - 18:08:05 10° SSW 18:13:28 54° WNW 18:19:15 10° N daylight
